Theta_e
318 319 320 321 319 321 327 327 331 330 329 335 331 332 330 324 323 321 326 326 322 320 316 318 318 318 320 320 321 318 317 322 326 325 326 322 316 317 316 316 316 315 315 314 314 314 312 309 309 308 308 308 308 307 307 305 303 302 301 301 299 300 302 304 308 309 309 310 309 311 310 308 309 308 307 307 304 303 301 299 299 298 305 309 308 309 309 309 309 308 308 308 307 307 307 307 306
319 319 318 319 320 324 327 326 334 333 331 334 330 332 328 322 323 325 331 329 324 320 316 318 317 318 318 316 315 314 316 319 321 322 322 319 317 317 316 317 316 315 314 313 313 313 311 309 309 308 308 308 308 307 306 304 303 302 301 300 300 299 300 301 304 306 307 306 307 310 309 307 308 306 302 300 300 300 297 297 298 298 303 305 306 308 308 308 308 307 307 306 306 306 307 306 305
320 320 319 321 323 326 327 328 334 334 334 334 331 331 326 325 328 330 329 326 321 317 317 317 316 317 316 316 316 316 319 320 320 320 320 320 319 317 317 316 315 315 314 313 313 312 310 309 309 308 308 308 308 307 305 304 303 302 301 300 300 299 299 300 301 302 303 302 305 308 306 305 306 305 300 295 297 297 295 296 297 299 301 304 305 307 308 308 308 307 305 304 305 306 307 306 303
321 322 322 324 325 326 331 331 333 335 334 333 333 331 328 330 332 331 324 319 318 316 316 315 315 316 316 318 318 316 318 319 320 319 319 319 319 318 317 316 315 314 313 312 311 311 309 309 308 308 308 308 308 307 305 305 304 302 301 300 300 299 299 299 300 300 301 301 306 308 303 301 302 302 299 294 296 295 294 296 296 299 303 305 307 307 307 307 307 307 304 303 305 305 306 305 302
324 325 324 325 326 326 329 328 328 333 332 332 335 331 328 329 330 329 321 316 317 315 315 314 316 315 314 317 316 316 319 319 319 319 318 318 318 316 315 314 314 313 313 312 311 310 309 309 308 308 308 308 308 307 306 305 304 302 301 300 299 299 299 299 300 301 301 303 307 305 299 299 299 299 297 295 295 294 295 295 295 299 304 307 307 307 307 307 307 306 305 304 305 305 305 305 303
324 324 323 324 324 323 326 328 328 330 329 328 332 330 327 325 323 321 316 315 315 314 314 313 316 314 313 315 315 317 318 318 318 317 317 316 315 314 314 313 313 313 312 311 310 310 309 309 308 308 308 308 308 307 306 305 304 302 301 300 299 298 299 300 299 301 301 303 306 303 298 297 297 297 296 295 295 294 295 295 294 296 300 305 307 307 307 307 307 306 306 305 305 305 305 305 303
323 322 322 324 323 321 327 331 330 330 326 323 327 329 327 321 315 315 314 315 315 314 313 312 313 313 315 314 314 317 316 317 316 316 316 315 314 313 312 312 312 312 312 311 310 310 309 309 308 308 308 307 307 307 306 306 304 303 301 299 299 298 298 299 298 301 301 301 306 304 298 296 296 296 295 294 295 294 294 294 294 294 296 301 305 306 306 306 306 306 305 305 305 305 305 304 303
321 321 319 325 325 322 327 327 327 327 324 320 320 322 323 319 312 315 316 313 314 314 312 312 311 312 317 313 314 316 315 316 315 315 315 314 313 312 312 311 312 311 311 311 310 309 308 308 308 308 307 308 307 307 307 306 305 303 302 300 299 298 298 298 298 302 301 299 305 305 299 298 297 295 296 295 294 294 294 294 294 294 295 297 301 304 305 305 305 304 304 305 305 304 304 304 302
319 321 319 324 325 324 327 325 324 323 323 322 318 316 316 315 311 314 317 313 313 312 311 312 310 312 315 312 313 315 314 315 314 314 313 313 312 311 311 311 311 311 311 310 310 309 308 308 307 307 307 307 307 307 307 306 305 304 303 301 300 299 298 298 299 305 304 298 301 303 299 299 298 296 299 298 294 294 294 293 294 295 296 298 299 300 301 301 300 299 299 301 303 304 304 303 302
318 320 318 322 325 325 326 324 323 322 323 320 315 314 312 312 310 310 314 315 312 311 311 310 310 311 312 311 313 314 314 314 313 313 312 311 311 311 311 310 311 310 310 310 309 309 308 308 307 307 307 307 307 307 306 306 305 305 304 303 302 301 300 299 300 306 307 301 299 301 299 298 297 295 298 299 295 294 294 293 294 295 296 298 297 296 296 295 295 294 294 297 300 302 302 303 301
317 316 317 322 326 324 326 325 322 321 320 314 310 311 312 310 309 310 311 313 312 311 311 310 311 310 309 310 312 314 314 313 313 312 311 311 311 310 310 310 310 310 310 310 309 309 308 308 307 307 307 307 307 307 306 306 306 306 305 305 304 303 303 302 301 304 306 303 301 302 300 298 298 296 297 300 297 294 294 293 293 294 294 296 296 296 295 293 293 292 293 294 297 300 301 301 299
316 317 321 325 325 322 324 324 319 318 316 313 313 311 311 311 311 315 312 312 312 310 310 310 312 311 310 311 312 314 313 313 312 311 311 310 310 310 310 310 310 310 310 309 309 309 308 308 307 307 307 307 307 307 306 306 306 306 306 306 306 305 305 304 303 303 304 304 302 302 300 298 299 297 298 302 301 297 295 294 293 294 293 294 294 295 296 295 294 294 294 293 296 300 300 299 297
315 316 323 323 320 322 321 319 318 317 316 314 313 310 311 311 312 315 312 311 310 310 312 311 312 312 312 313 313 313 313 312 311 310 310 310 310 310 310 310 310 310 309 309 308 308 308 307 307 307 307 306 307 307 306 306 307 306 306 306 306 306 306 305 305 304 304 304 305 306 303 299 299 298 298 304 305 302 298 294 294 293 293 295 294 294 295 294 295 295 295 295 296 298 297 296 294
314 313 319 319 315 318 317 317 317 314 314 312 309 308 310 311 312 312 311 312 311 311 313 311 311 311 311 312 312 312 311 311 310 310 310 310 310 309 310 310 310 310 309 308 308 308 307 307 307 307 306 306 307 307 307 307 307 307 307 306 306 306 306 306 306 305 305 305 306 306 304 300 300 298 298 302 304 304 300 295 294 294 294 296 297 296 294 292 293 294 294 294 294 294 294 293 293
313 311 316 317 312 313 313 314 314 310 311 310 308 309 310 310 311 310 311 313 312 310 311 311 311 311 312 311 312 311 311 311 311 311 310 310 310 309 309 310 310 310 309 308 308 308 307 307 307 306 306 306 306 307 307 307 307 307 307 307 307 307 307 306 306 306 306 305 305 304 303 302 301 300 299 299 300 302 301 296 294 293 293 295 298 298 294 291 293 292 292 293 293 293 293 293 293
311 311 314 315 313 313 312 312 311 309 312 310 307 308 310 310 310 310 310 311 311 310 310 311 310 311 312 311 311 311 311 311 311 311 310 310 310 310 309 310 310 310 310 309 308 308 307 307 306 306 306 306 306 306 307 307 307 307 307 307 307 307 306 307 306 306 306 306 306 304 304 303 302 301 300 299 298 299 300 298 295 293 293 293 297 298 293 292 292 292 292 293 293 293 293 293 293
309 312 315 314 314 313 311 311 310 310 314 312 306 306 310 310 308 309 309 309 310 309 309 310 310 310 310 310 310 310 310 310 310 310 310 310 310 310 310 310 310 310 310 310 309 308 307 307 307 306 306 306 306 306 306 306 307 307 307 307 307 307 306 307 306 306 306 306 306 305 305 304 304 303 302 301 300 299 300 299 296 294 293 292 295 296 292 292 292 291 292 292 292 292 292 292 292
311 316 315 313 315 313 312 313 309 308 311 310 307 306 308 309 307 307 309 308 308 308 308 308 308 309 309 309 309 309 309 309 309 309 309 310 310 310 310 310 310 310 310 310 310 309 308 308 307 307 306 306 306 306 306 306 307 307 307 307 307 307 307 306 306 306 306 306 305 305 305 305 304 304 303 303 302 301 301 300 296 294 294 292 294 294 293 293 291 291 292 291 293 292 292 292 291
313 315 312 315 319 312 308 309 306 306 309 308 306 305 305 307 307 307 309 308 306 307 308 307 308 308 309 308 308 308 308 308 308 308 308 309 309 310 310 310 310 310 310 310 310 310 309 309 308 308 307 307 306 306 306 306 306 306 306 307 307 307 307 306 306 306 306 305 305 305 305 305 304 304 303 303 302 301 301 301 297 295 294 293 293 293 294 294 291 291 291 292 293 292 291 291 291
310 309 314 320 317 309 306 306 307 307 308 305 305 305 305 306 306 306 307 307 306 307 308 306 307 308 308 308 308 307 307 307 307 307 308 308 308 309 309 310 310 310 310 310 310 310 310 310 309 309 308 307 306 306 306 306 306 306 306 306 307 307 307 306 306 306 306 305 305 305 305 305 304 304 304 303 303 302 302 302 299 296 295 294 293 294 295 294 292 291 291 292 293 291 291 291 291
308 309 318 318 307 309 309 307 308 307 306 305 304 305 306 306 305 306 306 307 308 307 307 307 307 308 307 308 307 307 307 307 307 307 307 307 308 308 308 309 309 309 310 310 310 310 310 310 310 309 309 308 307 307 306 306 306 306 306 306 306 306 306 306 306 306 306 306 305 305 305 305 304 304 304 303 303 303 302 302 301 299 297 296 295 295 295 293 292 291 291 292 292 291 291 291 291
309 310 312 309 303 308 310 307 308 307 305 305 304 305 306 305 304 305 306 307 309 308 308 307 307 307 307 307 307 307 307 307 307 307 307 307 307 307 308 308 309 309 309 309 309 310 310 310 310 309 309 309 308 307 307 306 306 306 306 306 306 306 306 306 306 306 306 306 305 305 305 305 304 304 304 303 303 303 303 302 302 300 298 297 296 295 294 293 291 291 291 291 291 291 291 291 291
311 312 307 305 305 306 308 308 308 307 305 304 304 305 305 304 305 305 305 306 308 307 307 307 306 306 306 306 306 306 306 306 306 305 306 306 306 307 307 307 308 308 308 309 309 309 310 310 310 309 309 309 309 308 307 306 306 306 306 306 306 306 306 306 306 306 306 306 306 305 305 305 305 304 304 303 303 303 303 302 302 301 299 298 296 295 294 292 291 291 291 290 290 290 290 291 291
310 314 308 306 307 306 308 307 307 307 305 304 304 305 304 305 306 305 305 307 307 307 306 306 306 305 305 305 304 304 303 303 303 303 303 304 304 305 305 306 307 307 308 308 309 309 309 309 309 309 309 309 309 309 308 307 307 306 306 306 306 306 306 306 306 306 306 306 306 306 305 305 305 304 304 304 303 303 303 302 302 301 300 298 296 295 293 292 291 291 290 290 290 290 290 290 290
311 314 309 306 307 307 307 306 306 306 305 305 304 304 305 305 305 304 306 306 306 306 305 305 305 305 305 304 303 302 301 302 302 302 303 303 303 303 304 305 305 306 307 308 308 308 309 309 309 309 309 309 309 309 308 308 307 307 306 306 306 306 306 306 306 305 305 305 306 306 305 305 305 305 304 304 303 303 303 302 302 301 300 299 297 295 294 293 292 291 290 290 290 290 290 290 290
309 310 307 306 307 306 306 305 306 305 304 304 304 305 304 304 304 305 306 305 305 304 304 304 304 303 302 301 300 300 300 301 301 301 302 303 303 303 303 303 304 305 306 306 307 308 308 308 309 309 309 309 309 309 309 308 308 307 307 307 307 306 306 306 306 305 305 305 305 305 305 305 305 305 304 304 303 303 303 302 301 301 300 299 298 296 294 293 292 291 290 290 290 290 289 289 289
307 307 306 305 304 305 305 304 305 304 304 303 304 306 303 303 306 306 304 303 303 302 301 302 301 299 299 299 299 299 300 299 300 301 302 302 302 302 303 303 303 303 304 304 305 306 307 307 308 308 308 309 309 309 309 308 308 308 308 307 307 307 307 306 306 306 305 305 305 305 305 305 305 305 304 304 304 303 303 302 302 301 301 300 299 297 295 293 292 291 290 290 290 289 289 289 289
307 306 308 307 301 303 304 304 304 304 305 304 303 305 303 304 306 303 301 300 300 299 299 299 298 297 297 297 297 297 298 298 299 300 300 300 299 300 301 302 302 302 302 302 303 304 305 306 306 307 308 308 308 309 309 309 308 308 308 307 307 307 307 306 306 306 305 305 305 305 304 304 304 304 304 304 304 303 303 302 302 301 301 301 300 299 296 294 292 291 290 290 289 289 289 289 289
306 305 310 313 306 304 303 303 305 304 306 305 304 307 307 305 302 300 299 299 299 298 297 296 296 296 295 295 295 295 296 297 298 298 298 298 298 299 300 300 301 302 302 302 302 302 303 303 304 305 306 307 307 308 308 308 308 308 308 307 307 307 306 306 306 306 306 305 305 305 304 304 304 304 304 304 304 303 303 303 302 302 301 301 300 299 297 294 293 292 291 290 290 289 289 289 289
306 303 308 315 312 308 303 302 305 305 305 305 305 309 310 304 299 297 297 297 297 297 296 295 295 294 294 294 294 294 294 294 295 296 297 297 298 298 298 299 300 301 302 302 303 303 303 302 303 303 304 305 305 306 307 307 307 308 307 307 307 307 307 306 306 306 306 305 305 305 304 304 304 303 303 303 303 303 303 303 303 302 302 301 300 299 297 295 293 292 291 291 290 290 289 289 289
308 306 309 311 310 308 304 301 304 306 305 304 308 311 309 303 297 296 296 296 296 295 295 294 294 294 293 293 293 293 293 293 293 293 295 296 297 298 298 298 299 299 300 301 301 302 303 303 303 302 302 303 304 304 305 306 306 306 306 307 307 307 306 306 306 306 306 306 305 305 305 304 304 304 303 303 303 303 303 303 303 302 302 301 300 299 297 295 293 292 292 291 290 290 290 289 289
311 309 313 311 307 308 305 300 300 304 304 303 308 313 311 302 296 296 295 295 295 294 294 294 293 293 293 293 292 293 292 292 292 292 293 294 296 296 297 297 298 298 298 298 299 300 302 302 303 303 302 302 302 302 303 303 304 304 305 305 305 306 306 306 306 306 306 305 305 305 305 304 304 303 303 303 302 302 302 303 303 302 302 301 300 299 297 296 294 293 292 291 290 290 290 289 289
310 308 311 312 309 307 306 303 298 300 304 304 305 309 310 301 296 296 294 294 294 294 294 293 293 293 292 293 292 292 292 292 292 292 292 292 293 294 295 296 296 297 297 297 298 299 299 300 301 302 302 302 301 302 302 302 302 302 303 303 304 304 304 305 305 305 305 304 304 304 304 304 303 303 303 302 302 302 302 302 302 302 301 301 300 299 298 297 295 294 292 291 290 289 289 289 289
310 309 310 311 309 306 307 306 301 300 304 305 304 306 305 299 295 296 294 294 294 293 293 293 293 292 292 292 292 292 292 292 292 291 291 291 292 293 294 294 295 296 297 297 297 297 298 298 299 299 300 301 301 302 301 301 301 301 302 302 302 302 302 302 302 302 303 303 303 303 303 303 303 302 302 302 302 302 302 302 302 301 301 301 300 299 298 297 295 294 293 292 290 289 289 289 289
308 309 311 310 309 307 307 307 303 302 305 305 305 304 300 296 295 295 294 293 293 293 293 292 292 292 292 292 291 292 291 291 291 291 291 291 291 292 292 293 294 295 295 296 296 297 297 297 297 298 298 299 300 301 301 301 301 301 301 301 301 302 302 302 302 302 302 302 302 302 302 302 302 302 302 302 302 302 301 301 301 301 301 300 300 299 298 297 296 295 294 293 291 290 289 288 288
308 307 308 308 308 308 307 307 303 301 305 306 304 301 297 296 295 294 294 293 293 293 292 292 292 292 291 291 291 291 291 291 291 291 291 291 291 291 292 292 292 293 294 294 295 295 296 297 297 297 297 297 298 299 300 300 300 300 300 300 300 301 301 301 301 302 302 302 302 302 302 302 302 302 301 301 301 301 301 301 301 300 300 300 300 299 299 298 298 297 296 294 293 291 289 288 288
306 306 308 308 307 307 305 305 303 300 304 306 301 298 296 295 295 294 294 293 292 292 292 292 292 291 291 291 291 291 290 291 290 290 290 290 291 291 291 292 292 292 293 293 294 294 294 295 296 296 297 297 297 297 297 298 299 299 299 298 299 299 299 300 300 300 301 301 301 301 302 301 302 302 302 302 301 301 301 301 300 300 300 300 300 300 299 299 298 297 295 294 293 291 290 289 288
306 307 309 309 307 306 303 303 303 300 303 305 301 299 297 295 295 294 293 292 292 292 291 291 291 291 291 291 291 290 290 290 290 290 290 290 290 290 291 291 291 291 291 291 292 292 293 293 294 294 295 296 296 297 296 296 296 297 298 298 298 298 298 299 299 299 300 300 300 300 300 300 301 301 302 302 302 302 301 301 300 300 300 300 299 299 299 298 297 296 295 294 293 292 290 289 288
308 306 306 308 306 305 304 304 304 301 302 306 304 300 297 295 295 294 293 292 292 291 291 291 291 291 291 291 290 290 290 290 290 290 289 289 289 290 290 290 290 290 290 290 290 291 291 292 292 293 293 294 295 296 296 296 296 296 296 297 297 298 298 298 298 298 299 299 299 298 298 298 299 300 300 300 300 300 300 300 300 300 299 299 299 299 298 298 297 297 296 295 293 292 290 289 288
305 304 305 307 305 304 305 305 304 301 300 304 305 301 297 295 295 295 293 293 292 291 291 290 291 291 290 290 290 290 290 290 290 290 289 289 289 289 289 289 290 290 290 290 290 289 289 290 290 291 292 292 293 294 295 296 296 296 296 296 296 297 297 297 297 298 298 298 298 298 297 298 298 298 298 298 298 299 299 299 298 298 298 298 298 298 298 298 297 297 296 295 294 292 291 290 289
304 305 307 305 304 304 304 303 301 301 300 300 302 303 299 295 296 296 293 293 292 291 291 290 290 290 290 290 290 290 290 290 290 289 289 289 289 289 289 289 289 289 290 290 289 288 288 288 288 289 291 291 292 292 293 294 295 296 296 297 296 297 296 296 297 297 297 298 298 298 298 298 298 298 298 297 298 298 298 298 298 298 298 298 297 297 297 297 297 297 296 295 294 293 292 291 289
306 307 306 303 303 303 301 300 300 303 305 301 302 308 305 297 296 296 293 292 291 291 290 290 290 290 290 290 290 290 290 290 290 289 289 289 289 288 288 289 289 289 289 289 289 288 288 288 287 288 289 290 291 291 292 292 293 294 295 296 296 296 296 296 296 296 296 296 297 297 298 298 298 298 298 297 297 297 297 297 297 297 297 297 297 297 297 296 296 296 296 295 294 294 293 291 289
305 306 305 303 303 302 301 301 302 305 305 301 301 306 306 300 297 296 294 291 290 291 290 290 290 290 290 290 290 290 290 290 289 289 289 289 289 288 288 288 288 288 289 289 289 288 288 287 287 287 288 288 289 290 291 291 292 292 293 293 293 294 294 295 296 296 296 296 296 296 297 297 298 298 298 297 297 297 296 296 296 296 296 297 297 296 296 296 296 296 296 296 295 294 292 290 289
305 305 303 303 302 301 301 300 302 305 303 301 301 302 304 305 300 294 293 292 290 290 290 290 290 289 290 290 289 290 290 290 289 289 289 288 288 288 288 288 288 288 289 289 289 288 288 287 287 287 287 287 288 289 289 290 291 291 291 292 292 292 292 293 295 295 296 296 296 296 296 296 297 297 298 298 297 297 296 296 296 296 296 296 296 296 296 296 295 295 295 295 294 293 292 291 290
307 306 302 302 302 300 301 302 306 304 300 302 303 300 303 306 300 293 293 292 290 290 290 289 290 289 289 290 289 290 290 289 289 289 289 288 288 288 288 288 288 288 288 289 289 289 288 287 287 287 287 287 287 288 288 289 289 290 290 291 291 292 292 292 292 293 295 295 296 296 296 295 296 296 297 297 297 297 296 296 295 295 295 295 295 295 295 295 294 294 294 294 294 293 292 291 290
305 303 301 302 301 300 301 303 307 305 302 304 305 301 302 303 302 297 293 292 290 290 290 289 290 289 289 290 289 289 289 289 289 288 288 288 288 288 288 288 287 287 288 288 289 289 288 288 287 287 287 287 287 287 287 288 289 289 289 289 290 290 291 291 292 292 293 294 295 295 296 296 295 295 296 296 296 297 297 296 296 295 295 294 294 294 294 294 294 294 293 294 293 293 292 291 290
301 302 303 303 302 301 302 302 303 303 301 304 304 301 301 301 301 297 293 292 291 290 290 290 290 289 289 290 289 289 289 289 288 288 287 287 287 287 287 287 287 287 287 287 288 289 288 288 287 287 287 287 287 287 287 287 288 288 289 289 289 289 289 290 291 291 291 292 293 294 294 295 295 295 295 295 296 296 296 296 296 296 295 295 294 294 294 294 294 293 293 293 293 292 292 291 290
300 303 303 301 300 301 304 305 304 301 299 300 300 300 300 300 300 294 291 291 291 290 290 289 289 289 289 290 289 289 289 288 288 287 287 287 287 287 287 287 287 287 287 287 287 288 288 288 287 287 287 287 287 287 287 287 287 288 288 289 289 289 289 289 289 289 290 290 291 292 293 293 294 294 295 295 295 295 295 295 295 295 296 295 295 294 293 294 293 293 293 292 292 292 291 291 290
301 303 303 302 301 301 301 302 302 301 299 299 299 299 299 300 299 293 291 291 290 290 290 290 289 289 290 290 289 288 288 287 287 287 286 286 287 287 287 287 287 287 287 287 287 288 288 288 287 287 287 287 287 287 287 287 287 287 288 288 288 289 288 289 289 288 289 289 290 290 291 292 293 293 294 294 295 295 295 295 294 294 295 295 295 294 293 293 293 292 292 292 292 292 291 290 290
302 302 303 303 301 300 300 300 301 300 299 299 298 298 300 300 298 293 291 290 290 290 290 290 290 290 290 289 288 287 287 287 286 286 286 286 286 286 287 287 287 287 287 287 287 287 287 288 287 287 287 287 287 287 287 287 287 287 287 288 288 288 288 289 289 289 288 289 289 289 290 291 292 292 293 293 294 295 295 295 294 294 294 295 295 295 294 292 292 292 292 292 292 292 291 290 290
301 302 303 303 301 300 301 302 301 299 299 300 299 300 303 301 296 292 290 289 290 290 290 290 290 290 289 288 287 287 287 286 286 286 286 286 286 286 287 287 287 287 287 287 287 287 287 287 287 287 287 287 287 287 287 287 287 287 287 287 288 288 288 288 289 289 288 288 289 289 289 290 291 291 292 293 293 294 295 295 294 294 294 294 294 295 294 293 291 291 291 291 291 291 291 290 289
301 301 302 302 301 300 302 303 301 299 299 300 299 301 303 298 292 290 290 289 290 290 290 290 290 289 288 287 287 286 286 286 286 286 286 286 286 286 286 287 287 287 287 287 287 287 287 287 287 287 287 287 287 287 287 287 287 287 287 287 287 288 288 288 288 288 288 288 288 288 289 289 290 291 291 292 292 293 294 295 294 294 293 294 294 294 294 293 292 291 291 291 291 291 290 290 289
300 300 300 299 298 299 302 302 300 299 299 300 300 299 299 296 293 290 290 290 290 290 290 290 289 288 287 287 287 286 286 286 286 286 286 285 286 286 286 287 287 287 287 287 287 286 287 286 286 287 287 287 287 287 287 287 287 287 287 287 287 287 288 288 288 288 288 288 288 288 288 288 289 290 291 291 292 292 293 294 294 294 293 293 294 294 294 294 292 291 290 290 290 291 290 290 289
301 301 299 298 298 299 300 300 299 299 298 298 298 297 296 297 295 292 290 291 291 290 290 289 289 288 287 287 287 286 286 286 286 285 285 285 285 286 286 287 287 287 286 286 286 286 286 286 286 287 287 287 287 287 287 287 287 287 287 287 287 287 287 288 288 288 288 288 288 288 288 288 288 289 290 291 291 292 293 293 294 294 293 292 293 293 293 293 292 291 290 290 290 290 290 290 289
298 298 297 297 298 299 299 298 297 298 297 296 297 297 296 297 296 293 292 291 291 290 290 289 288 288 287 287 286 286 286 285 285 285 285 285 285 285 286 287 287 286 286 286 286 286 286 286 286 287 287 287 287 287 287 287 287 287 287 287 287 287 287 287 288 288 288 288 288 288 288 288 288 288 289 290 291 291 292 293 293 294 294 292 292 293 293 293 292 291 291 290 290 289 289 289 288
297 297 296 296 297 297 296 296 296 297 297 296 296 296 295 296 296 293 291 290 290 290 289 288 288 287 287 286 286 285 285 285 285 285 285 285 285 285 286 287 287 286 286 286 286 286 286 286 286 287 287 287 287 287 287 287 287 287 287 287 287 287 287 287 287 288 288 288 288 288 287 288 288 288 289 290 291 291 291 292 292 293 294 293 292 292 293 292 292 291 291 290 290 289 289 289 288
297 299 297 296 297 296 294 295 295 296 296 296 296 295 295 295 293 291 290 290 289 289 288 287 288 287 286 286 285 285 285 285 285 285 285 285 285 285 286 287 286 285 285 286 286 286 286 286 286 286 287 287 287 287 287 287 287 287 287 287 287 287 287 287 287 287 288 288 288 287 287 288 288 288 289 290 291 291 291 291 292 293 293 293 293 292 292 292 292 291 290 290 290 289 288 288 288
297 298 297 295 295 295 294 295 295 296 296 295 295 294 294 293 292 291 290 290 289 289 288 287 287 286 285 285 285 285 285 285 285 285 285 285 285 286 287 286 286 285 285 286 286 286 286 286 286 286 286 287 287 287 287 287 287 287 287 287 287 287 287 287 287 287 288 288 287 287 287 288 288 288 289 290 290 291 291 291 292 292 293 293 293 292 291 291 292 291 290 289 289 289 288 288 287
Wind_Speed
6 7 7 8 7 8 6 3 1 1 1 3 2 1 3 1 0 1 3 3 2 3 5 6 6 9 7 3 5 6 6 7 7 4 4 3 1 3 4 4 5 5 5 9 14 16 17 17 15 12 9 7 6 5 6 7 7 8 8 8 9 10 11 12 13 12 13 13 12 13 12 12 12 12 12 11 11 10 9 10 9 10 11 11 12 12 11 10 8 8 8 8 7 7 6 6 6
4 5 5 7 7 7 5 4 1 1 1 5 3 2 3 1 1 3 5 4 3 4 4 7 8 11 12 8 7 7 11 17 18 16 15 12 10 9 7 6 6 6 6 9 14 17 18 17 15 12 9 7 6 6 7 7 7 7 8 8 9 10 11 12 13 14 14 14 13 13 12 11 11 10 10 10 10 9 9 9 9 10 10 11 13 12 12 11 9 9 9 8 8 7 7 6 5
2 2 4 6 7 6 4 3 1 1 2 7 3 2 1 1 4 6 7 7 6 8 8 7 7 11 11 8 7 4 10 19 21 23 21 19 17 14 12 10 8 8 8 11 15 17 18 17 14 12 9 7 7 7 6 6 6 6 7 8 9 10 11 11 11 13 13 13 13 12 12 12 10 10 9 9 9 8 8 9 9 10 9 10 12 11 11 10 9 9 9 9 8 7 7 6 4
1 4 6 7 6 4 4 1 1 3 4 5 2 3 2 3 5 6 8 9 9 10 8 5 5 9 8 8 8 4 13 20 19 19 17 17 17 14 13 11 10 10 10 12 15 17 18 17 14 11 9 7 7 7 6 6 5 6 7 7 8 9 11 11 11 11 12 12 12 11 11 12 10 10 8 7 8 7 8 9 9 10 10 10 10 11 11 10 9 9 9 9 8 8 7 6 4
5 6 5 6 4 2 2 1 1 2 5 2 1 4 3 5 5 6 10 11 11 11 8 5 4 5 7 11 8 4 13 15 15 17 15 16 15 13 13 12 11 11 12 14 16 18 18 16 13 11 9 8 8 7 6 6 6 6 7 8 9 10 11 12 12 11 11 11 11 11 10 10 10 9 7 6 6 6 7 7 8 9 10 10 10 10 10 10 9 9 8 9 9 8 7 6 4
7 7 4 5 3 2 2 1 1 2 4 2 2 4 3 6 6 7 12 15 11 10 9 8 6 3 5 12 12 13 18 15 14 15 14 15 14 14 14 12 12 12 13 15 17 19 19 16 14 11 10 9 9 8 7 6 6 7 8 9 10 11 11 12 12 11 11 12 11 10 9 9 8 7 6 6 6 5 6 6 6 7 9 10 11 10 10 10 9 9 9 9 9 8 7 7 5
6 4 3 4 3 2 2 2 3 3 3 3 2 3 4 6 5 7 10 11 6 6 8 10 8 2 6 9 11 19 22 19 19 18 17 17 16 15 13 12 12 13 14 16 18 20 19 17 14 12 10 10 9 8 7 7 7 8 9 10 11 11 12 12 13 12 11 12 11 10 9 8 7 7 6 6 6 5 5 5 5 6 7 9 11 10 10 10 9 9 9 9 9 9 8 6 5
3 2 2 3 1 3 1 2 3 3 2 2 3 5 8 9 7 5 5 5 4 5 7 11 6 2 8 8 9 18 19 18 19 19 20 20 19 16 14 12 12 14 16 17 19 20 19 17 14 13 11 11 10 9 8 7 8 8 9 10 11 12 12 12 12 13 12 12 11 10 9 8 7 6 6 5 5 5 5 5 5 5 6 8 10 10 10 10 9 10 10 9 9 9 8 7 6
3 1 2 2 1 2 1 2 3 3 3 4 4 8 12 13 8 5 5 5 6 7 8 10 6 4 6 6 14 21 19 17 17 19 20 21 20 17 15 13 12 14 16 18 19 20 19 17 15 14 12 12 11 9 8 8 9 9 10 10 11 12 12 13 12 13 12 12 12 11 9 8 7 5 6 6 4 4 4 4 5 5 6 8 9 10 10 9 8 9 9 9 9 9 8 7 6
3 2 2 2 1 1 3 3 3 2 4 4 5 12 17 14 8 6 6 7 8 6 9 7 8 13 8 7 18 22 18 17 17 19 19 19 19 17 16 13 12 15 17 18 19 20 19 17 15 15 13 13 12 11 10 10 10 10 10 10 11 12 12 13 12 12 12 12 11 11 9 8 7 6 7 7 4 4 4 4 5 6 6 7 8 9 10 10 9 9 10 9 9 8 8 7 6
2 3 3 2 2 2 4 4 4 4 4 3 8 14 14 11 5 5 4 7 11 8 9 4 5 14 10 9 19 20 17 18 19 18 17 15 15 15 15 13 13 15 18 18 19 20 19 17 16 15 15 14 13 12 12 12 11 10 10 10 10 11 12 12 12 12 12 12 12 11 10 9 8 7 7 7 5 4 4 4 5 6 6 7 8 8 9 10 9 10 10 11 10 9 8 7 6
0 2 3 2 1 3 3 3 5 6 6 3 5 6 4 4 2 4 5 6 10 8 10 7 5 7 3 5 14 19 20 21 20 17 14 13 12 12 13 13 13 16 19 20 20 20 18 18 17 16 16 15 14 13 13 13 12 11 11 11 10 10 10 11 11 12 12 12 12 12 11 10 9 8 7 8 7 5 4 4 5 6 7 7 8 8 8 9 9 10 10 12 10 9 9 8 9
0 2 3 1 2 2 2 2 4 5 6 3 4 3 2 4 4 6 6 6 9 6 8 9 10 7 3 8 18 23 19 15 13 13 13 12 11 11 12 12 13 16 19 21 21 20 19 18 18 17 17 16 15 15 15 14 13 12 12 12 11 10 10 10 10 10 11 12 12 12 11 10 10 8 8 9 9 8 5 4 5 6 7 7 8 9 9 10 10 10 10 11 11 11 13 12 13
1 4 3 1 0 1 2 2 3 2 5 4 4 4 4 6 6 8 6 6 9 7 8 11 9 7 6 9 16 16 8 9 13 15 15 13 12 11 12 12 13 16 19 22 22 21 20 19 19 19 18 18 16 16 16 15 14 13 13 13 12 11 10 10 10 10 10 11 11 11 11 11 10 10 9 10 10 9 7 6 6 7 7 7 8 8 10 12 11 12 13 13 14 15 16 15 16
2 4 4 1 0 1 2 3 2 1 4 3 3 4 5 10 8 10 9 5 10 13 12 12 7 5 4 5 11 14 12 18 20 19 18 15 14 12 13 13 14 16 19 22 23 24 22 21 21 21 20 19 18 17 16 15 15 15 14 14 14 13 11 11 11 11 11 11 11 11 11 11 11 11 11 11 11 10 9 8 8 8 8 8 9 9 10 13 12 14 15 15 17 18 17 16 17
3 4 4 0 1 1 3 3 0 1 5 4 5 5 5 11 9 8 11 9 13 20 16 12 9 9 12 14 20 23 24 27 25 24 22 18 16 14 15 15 16 17 19 23 24 26 25 24 23 23 22 21 20 19 17 17 16 16 16 16 15 15 14 13 13 13 13 12 12 12 12 12 12 12 12 12 11 12 11 9 8 9 9 10 10 10 11 14 14 15 16 17 18 18 17 17 18
3 2 2 2 1 2 3 4 3 2 5 6 6 5 2 9 11 9 13 13 16 22 21 17 17 20 24 26 28 27 27 28 28 28 26 22 20 18 18 18 18 20 21 24 25 27 27 26 26 25 24 23 23 21 19 18 18 18 18 18 18 17 16 15 15 15 15 14 13 13 13 13 12 12 13 12 12 12 12 9 9 10 10 12 12 11 14 15 15 16 17 19 19 18 16 16 18
3 2 1 3 2 4 5 6 6 3 3 6 8 6 2 7 12 11 12 13 15 19 25 24 22 24 24 25 24 24 25 26 26 26 26 25 24 22 22 21 21 22 23 24 26 28 29 29 28 27 26 26 25 24 22 21 20 20 20 20 20 20 19 18 17 17 17 16 15 14 14 13 13 13 13 13 13 13 13 10 10 12 12 13 14 14 15 14 16 18 19 21 20 17 15 16 18
3 3 2 4 5 5 6 6 5 4 6 9 12 11 5 7 10 10 8 13 13 13 23 24 20 23 24 23 21 21 22 24 24 23 24 25 25 26 26 25 25 25 25 25 26 27 29 29 30 29 29 28 27 26 25 24 23 23 22 23 22 22 22 21 20 19 19 18 18 17 16 15 14 14 15 15 15 15 15 13 12 13 14 14 15 16 15 15 17 19 20 21 18 15 16 17 18
2 3 2 5 6 4 7 9 9 10 11 10 11 10 7 10 12 8 4 12 14 8 15 15 15 25 30 28 26 25 25 25 25 23 23 24 25 26 26 28 28 28 27 26 26 27 29 29 30 31 30 30 29 28 27 27 26 25 25 25 25 24 24 24 22 22 21 21 20 19 18 17 16 16 16 17 17 17 17 15 15 16 16 16 17 18 17 16 18 20 21 21 17 16 17 18 18
2 4 4 5 4 2 8 9 10 11 10 9 10 10 11 14 10 7 5 8 10 10 15 15 19 30 32 32 31 28 27 27 26 25 25 25 25 26 26 28 28 29 29 28 28 28 29 30 31 31 32 32 31 30 29 29 28 28 27 27 27 27 26 26 25 25 24 23 23 22 21 20 19 19 18 19 19 19 19 18 17 18 18 18 19 20 18 18 19 21 22 20 18 18 18 18 19
3 4 6 5 5 2 8 7 9 11 11 11 10 8 12 14 10 9 6 4 8 16 23 23 26 31 32 33 33 31 29 28 27 26 26 26 26 26 26 27 28 29 29 29 30 30 30 30 31 32 33 33 32 32 31 31 30 30 29 29 29 28 28 27 27 27 26 26 26 25 24 23 22 21 21 21 21 20 20 20 19 19 19 20 21 21 19 19 21 22 23 21 20 19 19 19 19
1 4 5 4 3 3 9 13 15 16 14 11 8 9 12 13 10 10 9 10 14 22 26 28 29 29 30 31 31 32 32 31 30 28 28 29 29 28 27 27 27 28 30 30 30 31 31 31 32 33 34 34 33 33 33 33 32 32 32 31 31 30 29 29 30 29 29 29 28 28 27 26 24 23 23 23 23 22 21 21 21 20 21 21 22 21 21 21 22 23 24 23 22 20 20 20 19
1 4 5 4 4 5 11 18 18 16 13 10 10 10 12 9 6 8 11 12 19 26 29 30 30 29 30 31 34 37 38 37 35 32 29 29 30 31 31 31 30 30 31 30 30 32 32 32 33 34 34 34 35 35 35 35 34 34 34 34 33 32 32 31 31 30 31 31 30 31 30 29 27 26 25 25 25 24 23 22 22 22 22 22 23 23 23 23 23 24 24 24 23 22 21 20 20
3 3 6 4 6 7 13 19 14 13 12 10 9 8 10 9 6 7 9 20 28 32 33 31 32 36 37 40 43 44 45 44 42 39 36 32 29 28 28 28 30 33 33 31 31 32 31 32 33 33 34 35 35 36 36 35 35 36 36 36 35 34 34 32 32 32 32 33 33 33 32 32 31 30 28 27 27 26 25 24 24 24 24 24 24 24 24 24 24 24 25 24 24 23 22 21 20
2 5 8 6 10 10 13 16 12 13 11 9 6 8 10 8 5 4 12 31 36 34 34 34 38 42 42 43 45 46 48 49 48 45 43 40 36 33 27 23 23 27 30 32 34 33 33 33 33 33 34 35 36 37 37 36 37 38 37 37 37 36 35 34 34 34 34 34 35 34 35 35 34 33 31 29 28 28 27 26 25 25 25 25 25 25 25 25 25 25 25 25 25 24 22 22 21
4 9 11 7 10 8 11 13 12 12 7 11 10 7 9 4 2 5 22 39 36 34 37 39 42 43 42 42 44 47 49 51 50 49 48 48 47 45 38 29 23 21 23 28 30 33 35 35 34 33 34 35 36 38 37 37 38 38 38 38 39 38 37 36 36 36 36 36 35 36 37 37 36 35 33 31 30 29 29 28 27 27 27 27 26 26 26 26 26 26 26 26 26 25 24 23 22
5 10 10 8 8 1 7 9 11 10 5 20 16 2 7 4 5 14 32 39 31 34 39 41 43 41 41 41 43 48 51 52 52 53 53 51 50 50 47 42 34 26 23 24 25 29 33 35 35 35 35 36 37 37 37 38 39 39 39 40 40 39 39 39 39 38 37 36 36 37 38 38 38 38 36 35 33 32 31 30 29 28 28 27 27 27 27 27 27 27 27 27 27 26 26 25 23
3 6 4 8 9 3 5 10 12 10 7 27 19 2 8 6 11 26 35 35 32 40 43 43 43 40 42 42 44 48 51 54 55 55 53 51 49 49 49 47 43 36 30 26 24 24 26 29 33 34 35 36 36 37 37 38 40 40 41 41 41 41 41 41 41 40 39 38 38 39 39 39 40 39 39 38 36 34 33 32 32 30 29 28 29 29 29 29 29 29 29 29 28 28 27 25 24
1 4 2 5 8 0 7 12 14 9 9 28 16 2 7 6 17 32 33 33 36 43 42 42 44 42 43 43 45 47 50 54 55 54 52 51 50 49 49 47 45 43 38 33 28 25 23 23 25 29 32 34 35 35 37 37 39 40 41 41 42 42 42 42 42 41 40 40 40 39 40 40 40 40 40 40 39 38 36 35 34 32 31 30 30 30 31 31 31 31 30 30 30 28 27 26 26
1 3 3 4 5 4 9 11 11 8 9 24 13 2 5 6 19 31 30 31 36 38 37 40 43 43 44 43 44 45 46 50 52 53 52 52 51 49 49 48 47 46 43 41 36 30 24 20 19 21 24 29 32 35 36 37 38 38 39 40 41 41 42 42 42 42 41 41 41 41 41 40 40 40 40 41 41 40 39 38 36 34 32 31 31 32 32 32 32 32 32 31 31 30 29 28 27
4 4 4 4 3 6 11 6 8 7 6 17 14 1 4 6 18 28 28 30 36 36 35 38 41 42 44 45 46 46 46 49 52 55 54 53 52 50 49 48 47 47 46 45 41 36 31 24 19 16 16 20 25 30 34 36 37 38 39 39 39 40 40 41 41 41 41 41 42 41 41 41 41 41 41 42 42 42 42 41 38 35 34 33 33 33 34 34 33 33 33 33 32 31 30 29 27
4 5 3 5 4 6 10 3 7 9 5 10 10 1 4 5 15 25 26 28 34 35 33 35 38 40 42 44 46 48 51 54 56 56 55 54 52 50 49 48 47 46 46 46 45 42 38 34 28 21 15 14 16 20 26 30 32 34 36 38 39 39 40 40 40 41 41 41 42 41 41 42 41 41 41 42 42 42 42 42 40 37 35 34 34 34 35 35 34 34 34 34 34 33 31 30 29
4 4 2 3 4 4 7 5 6 12 8 6 5 1 2 5 11 20 24 27 32 32 29 31 34 37 39 42 44 46 49 52 54 54 54 53 52 50 48 47 46 45 45 45 45 44 41 39 36 32 26 18 14 13 15 19 24 27 30 33 35 37 38 39 40 41 41 41 41 41 41 41 40 40 40 40 41 41 41 42 41 39 37 36 36 36 36 36 35 35 35 35 35 34 33 32 30
4 4 3 3 4 3 6 7 4 10 8 5 6 3 5 6 7 15 21 25 29 27 25 28 31 34 36 39 41 43 44 47 48 49 51 53 53 52 50 48 46 45 44 43 43 43 42 41 39 37 35 31 25 18 13 11 14 18 22 26 29 31 33 35 36 38 38 39 39 39 38 38 38 38 37 37 38 38 39 41 42 41 40 39 38 38 38 37 36 36 36 36 36 36 35 33 30
5 4 3 4 5 5 8 9 4 6 5 4 6 4 4 5 6 12 19 22 26 25 25 29 30 32 35 37 38 40 41 43 44 47 50 53 53 53 52 50 48 45 44 43 42 42 43 42 41 40 39 37 34 29 24 18 13 13 15 19 22 24 26 28 30 31 32 33 33 33 34 34 33 33 33 34 34 35 37 38 40 41 41 40 40 40 39 38 38 37 37 37 37 37 36 34 32
2 1 3 5 4 6 9 8 4 4 4 2 4 6 5 5 5 9 16 21 25 25 24 27 29 30 32 34 37 38 39 40 43 47 51 53 54 53 53 52 50 48 47 45 44 43 43 41 41 40 40 39 37 36 34 31 25 20 17 17 18 20 22 24 24 25 26 27 27 28 28 28 28 28 29 30 30 31 33 35 37 39 41 42 42 41 40 39 39 38 37 37 38 38 38 36 34
1 1 3 5 4 7 10 7 3 5 5 2 2 6 3 3 4 7 14 16 18 20 20 24 27 28 31 33 35 36 37 41 45 49 52 54 54 54 53 52 52 51 50 48 47 45 43 41 40 39 38 37 37 36 35 34 32 29 25 21 18 18 18 20 21 22 23 24 25 26 26 26 26 27 28 28 28 29 31 33 35 36 38 40 42 42 41 41 41 39 39 39 39 39 38 37 35
2 0 0 4 4 6 10 5 1 3 3 3 1 4 3 3 4 5 11 12 14 19 21 24 27 29 31 33 35 37 40 43 46 49 51 52 54 53 53 52 51 50 49 48 48 47 45 43 42 40 38 36 35 34 34 33 32 30 28 26 23 20 17 17 18 18 20 21 22 23 23 24 25 26 27 28 29 31 32 33 34 35 37 39 41 42 43 43 42 41 41 40 40 39 39 38 37
1 0 1 5 5 4 6 3 2 5 2 3 1 2 3 2 1 3 8 12 14 18 21 25 28 29 30 31 33 38 40 43 46 48 50 52 53 53 52 51 49 49 49 48 48 49 48 46 44 41 40 38 35 34 32 31 31 30 29 26 24 22 20 18 17 17 17 19 20 20 20 20 22 23 24 26 28 29 30 32 34 35 36 38 39 42 44 44 43 42 42 41 41 41 41 40 38
3 2 1 5 6 3 5 6 9 7 1 1 1 2 2 2 0 1 4 8 11 17 22 27 29 29 29 31 32 35 36 38 41 45 48 50 52 53 52 50 48 47 47 47 47 48 48 47 45 42 40 38 37 35 33 32 31 31 31 30 27 25 23 23 22 20 20 20 20 20 20 20 21 21 22 23 25 26 27 29 31 34 35 37 39 41 43 43 43 43 42 42 42 42 42 40 39
5 3 4 5 8 7 8 8 8 6 2 1 2 3 3 2 2 1 2 4 8 15 20 23 27 28 29 31 31 31 33 34 36 39 43 46 49 50 51 49 47 45 44 44 44 46 47 47 45 42 40 39 37 36 35 33 32 31 31 31 31 29 28 27 25 25 24 24 24 23 22 21 21 21 22 22 23 24 25 26 28 31 33 35 37 40 42 44 44 44 42 42 42 43 42 41 41
5 3 5 5 6 8 9 6 3 3 4 4 1 0 4 1 1 3 1 3 7 12 14 17 22 25 25 27 28 29 32 35 37 39 42 45 46 46 47 45 44 42 40 40 42 44 46 48 46 43 41 39 38 37 36 34 33 31 30 29 28 27 27 26 25 24 24 24 25 24 23 22 22 21 21 20 21 21 23 24 26 28 30 32 34 38 41 43 45 44 43 42 42 42 42 43 43
5 3 2 6 10 9 8 3 1 3 3 4 2 2 3 3 3 4 3 2 7 10 9 10 15 20 23 24 27 28 29 33 37 39 42 45 45 45 45 44 43 42 38 37 40 42 45 48 47 45 42 40 38 38 37 35 34 32 31 29 27 25 24 24 24 24 24 24 24 23 23 22 21 22 21 20 19 19 21 22 24 26 29 31 33 35 38 41 43 44 44 43 43 43 44 45 44
6 5 3 8 9 6 4 2 3 2 2 5 4 1 2 6 3 1 1 2 7 8 7 8 10 15 21 23 25 26 27 30 34 37 41 44 46 46 46 45 44 42 39 37 38 40 44 47 48 47 44 42 39 38 37 36 34 33 31 30 30 28 25 24 23 23 23 24 24 23 23 22 21 21 21 20 20 20 20 21 22 24 27 30 32 33 36 38 41 43 45 45 44 44 44 44 44
8 7 6 5 1 1 1 2 2 1 2 4 5 1 2 8 5 1 1 2 4 6 4 6 10 13 19 23 25 28 29 32 36 38 42 45 46 46 46 45 45 44 41 39 38 38 42 46 49 49 47 44 41 39 38 37 34 33 32 30 30 30 29 28 26 25 23 23 24 24 24 24 23 22 21 20 21 21 21 22 24 25 26 28 30 32 34 37 40 42 43 44 43 43 43 44 44
9 7 6 4 1 3 2 1 1 3 4 5 5 2 3 7 5 1 1 1 1 3 4 6 11 14 19 24 26 28 31 34 38 41 44 47 47 46 45 46 47 46 43 42 40 40 41 45 48 51 49 46 43 41 39 38 36 34 32 30 29 29 29 29 29 28 27 25 25 25 24 24 24 24 23 21 21 21 22 23 25 27 27 27 29 31 33 35 37 39 41 42 43 43 43 43 43
6 5 6 7 5 3 3 4 4 5 7 7 3 1 4 7 5 2 2 1 2 2 4 6 10 14 19 24 26 28 30 33 38 41 44 47 47 47 46 47 47 46 44 43 43 42 42 43 46 50 51 47 45 43 41 39 37 35 34 32 30 29 28 28 29 29 28 27 27 27 26 25 24 24 24 23 22 22 22 23 24 27 29 30 30 31 32 33 35 37 39 41 42 43 43 42 43
6 5 5 7 5 6 6 5 4 2 8 8 3 3 4 6 4 3 5 2 1 2 5 7 12 16 19 23 26 28 31 34 37 40 43 45 45 45 45 45 45 45 44 43 44 44 44 43 45 48 50 48 45 44 42 40 38 36 34 34 33 31 29 29 29 29 27 27 27 28 28 28 27 25 24 24 24 23 24 25 25 26 28 30 31 31 31 31 34 36 39 40 41 42 42 42 43
6 3 4 6 4 6 6 5 4 5 10 10 6 4 6 6 2 4 6 4 2 3 8 11 14 16 19 23 26 29 33 36 40 43 46 47 46 45 43 42 42 42 43 43 44 45 45 44 46 48 49 47 44 43 43 41 39 36 34 34 34 33 32 31 30 30 28 27 26 26 28 29 29 28 26 25 24 24 25 26 26 26 27 28 30 31 31 31 33 36 38 39 40 40 41 41 42
3 1 4 5 3 1 3 4 5 8 11 13 9 4 6 7 3 4 6 3 1 6 12 15 15 16 19 23 26 31 37 41 45 49 51 51 49 47 44 42 41 41 41 42 44 45 45 45 47 50 49 46 44 42 42 41 40 38 35 34 34 34 34 33 32 31 30 29 28 26 26 27 28 29 29 27 26 25 26 26 27 27 27 27 28 30 32 31 32 35 37 38 39 39 39 41 41
1 2 4 3 0 3 3 5 5 6 8 9 6 3 4 4 3 2 1 3 6 11 15 16 16 19 23 27 33 40 45 48 50 51 52 52 50 48 45 43 42 41 42 43 45 45 44 45 48 49 48 46 44 42 41 41 40 39 36 34 34 34 34 34 33 33 32 30 29 28 27 26 26 27 28 28 27 27 27 27 28 28 27 27 27 29 31 32 32 34 36 37 38 37 38 40 40
2 4 4 5 3 5 2 6 4 2 6 6 4 6 6 3 2 1 4 5 7 10 13 16 21 26 31 35 41 47 49 50 51 50 51 50 49 47 44 43 41 41 43 45 45 45 45 46 49 49 48 46 44 43 42 41 40 40 38 35 35 34 34 34 34 34 33 31 30 29 28 27 26 26 26 27 28 28 28 28 28 29 28 28 28 28 30 32 32 33 35 35 35 35 36 38 39
1 3 5 5 0 4 2 3 3 3 6 5 5 12 12 8 4 2 3 6 9 11 14 20 27 31 35 38 42 46 49 50 51 52 53 51 50 48 44 42 40 41 45 46 47 47 47 47 48 48 47 45 44 43 42 42 41 40 39 37 36 35 35 35 34 34 33 33 32 31 30 28 27 26 26 26 27 28 28 28 28 29 29 28 29 29 30 31 31 32 33 34 34 34 35 37 38
6 3 3 3 2 3 2 1 4 5 7 7 9 14 12 6 3 3 6 9 13 14 14 18 23 26 30 36 41 46 49 50 52 54 53 52 51 49 44 41 40 44 48 49 48 49 48 48 48 47 46 45 43 43 42 41 41 40 40 38 37 36 36 35 35 34 34 33 33 33 31 30 28 27 26 26 26 28 29 28 28 29 30 29 29 29 30 30 31 32 33 33 34 34 36 36 37
6 4 3 3 1 3 2 2 2 4 8 8 10 12 8 2 2 3 8 11 16 16 11 12 18 23 30 37 43 47 49 51 53 53 52 52 51 48 42 38 40 47 51 51 50 50 50 49 49 48 47 45 44 44 43 43 41 40 40 39 38 37 36 36 36 35 34 34 34 33 32 30 28 27 26 26 26 27 28 29 29 29 30 30 30 30 30 30 31 32 34 34 34 34 36 36 37
5 4 3 4 1 1 2 2 1 1 6 6 8 11 8 1 1 4 8 13 19 17 10 11 19 28 37 43 47 50 52 54 54 52 52 53 52 47 39 36 41 49 51 50 51 51 51 50 50 49 48 46 46 45 44 44 43 41 40 39 38 38 37 36 36 36 35 34 34 33 31 29 29 28 27 25 25 25 26 27 28 29 30 31 31 31 30 31 32 33 34 35 35 35 36 36 37
3 2 1 0 1 1 3 3 1 0 3 4 6 10 9 2 1 3 9 15 19 17 14 17 25 35 42 49 54 55 54 55 54 54 54 53 51 45 38 38 47 52 51 49 49 49 50 51 50 50 48 47 46 46 45 45 43 42 41 40 39 39 38 37 37 36 36 35 34 33 29 27 28 28 27 25 24 24 24 26 27 28 29 30 32 32 31 31 33 34 34 36 37 36 36 37 38
Wind_Direction
244 235 228 222 212 192 173 149 210 348 65 253 250 215 254 241 19 285 270 267 276 245 218 237 223 183 183 207 232 267 267 220 216 224 248 265 280 242 229 223 215 220 216 199 200 200 193 190 190 187 189 189 194 209 216 214 209 209 206 208 203 202 198 191 191 190 186 190 186 179 186 183 178 179 173 173 178 175 176 173 167 157 152 163 162 158 161 161 163 155 148 149 142 134 129 124 118
260 237 216 199 187 186 174 124 195 305 344 268 246 173 259 349 275 240 232 239 245 273 277 253 232 215 225 251 271 288 270 251 246 250 260 267 278 281 275 272 255 239 224 202 198 197 194 191 189 189 188 188 199 209 208 203 201 200 198 198 198 196 197 198 195 198 199 200 194 186 191 186 181 185 183 183 184 181 176 171 166 157 160 168 163 163 165 162 164 160 160 158 153 146 133 131 129
280 213 178 170 163 162 141 108 197 166 229 259 258 200 223 149 232 233 238 253 275 287 286 258 233 232 233 248 260 246 262 264 258 257 263 267 272 278 277 276 261 239 222 205 198 195 193 192 190 189 187 191 202 207 201 197 197 194 196 194 193 194 195 199 199 202 206 207 197 191 198 199 192 187 192 195 188 185 177 172 170 163 166 170 165 167 165 163 164 164 168 163 159 154 140 140 145
105 148 149 152 139 126 105 82 164 144 228 254 283 257 209 199 237 250 264 278 291 286 270 244 233 237 222 232 247 237 260 266 267 263 264 269 273 277 277 272 257 237 221 206 198 195 194 193 192 190 190 198 203 201 194 190 195 193 195 193 191 193 195 198 199 201 204 204 191 189 206 211 208 198 200 202 192 190 182 174 171 167 166 168 169 169 166 167 164 165 169 163 163 161 150 145 155
123 131 141 161 147 123 106 90 121 167 229 217 266 256 225 218 238 265 282 296 294 280 253 218 234 241 229 243 239 227 262 269 275 269 265 271 276 279 277 269 253 237 224 208 198 195 196 196 195 194 195 202 202 193 188 187 189 192 193 191 191 192 194 196 198 197 199 198 189 196 211 213 213 210 206 204 200 194 185 181 176 171 168 169 172 171 170 170 168 168 167 164 164 162 155 147 159
124 118 113 151 145 118 128 197 204 231 234 173 237 254 242 230 239 270 293 305 295 271 248 222 241 277 267 258 242 247 265 272 275 274 273 276 279 279 275 266 248 233 224 209 199 197 198 199 197 198 199 202 199 187 184 185 186 189 190 189 190 190 190 193 196 196 197 196 192 199 209 213 214 214 211 204 201 198 193 191 187 179 174 172 172 174 173 172 172 170 167 166 163 159 162 156 158
122 110 91 127 99 52 134 243 229 245 249 177 204 250 262 259 262 285 306 320 311 268 244 232 239 270 281 268 255 265 270 268 272 278 280 281 282 279 272 260 242 229 223 211 202 200 200 201 199 199 201 202 196 187 183 182 186 187 188 188 187 186 187 190 192 192 197 197 192 195 205 214 213 210 209 203 196 197 200 197 199 193 184 177 174 176 176 174 174 172 171 170 166 162 165 165 163
121 113 52 116 66 19 126 276 255 227 249 222 227 247 265 280 285 291 299 310 302 283 254 243 232 190 267 260 257 274 279 277 278 280 282 284 282 278 272 258 239 230 223 214 205 201 201 200 200 201 202 203 196 188 185 184 187 187 188 187 182 183 184 186 188 187 192 194 190 192 201 204 203 206 200 199 201 196 203 205 205 203 198 191 184 183 180 179 177 177 176 173 172 169 170 174 170
100 138 25 84 148 2 341 283 271 236 251 265 249 252 269 283 289 281 282 291 286 284 274 257 215 196 278 268 262 279 288 290 291 290 291 289 283 277 273 263 248 237 227 218 209 205 203 201 202 203 204 203 198 190 187 189 190 190 190 186 181 180 180 182 184 185 187 189 189 191 196 197 197 201 194 196 211 210 214 216 214 214 205 197 199 202 201 204 200 197 196 187 179 174 173 176 183
56 66 78 80 106 313 305 267 261 252 247 258 262 270 279 284 284 266 261 287 286 280 286 277 210 228 273 293 274 286 294 298 304 302 302 293 285 279 274 268 252 241 232 224 215 210 207 205 204 205 206 205 200 191 191 194 194 193 193 191 185 181 180 180 182 185 185 186 190 191 194 197 197 200 196 196 209 217 219 223 220 223 215 204 213 220 226 236 233 226 220 209 198 191 180 175 197
42 49 96 84 62 260 265 259 267 270 267 300 286 277 281 279 277 263 235 271 279 270 268 266 209 237 256 278 274 288 300 306 310 305 301 291 285 280 275 266 247 237 233 230 221 215 211 210 209 208 208 208 203 194 195 198 198 197 196 198 193 189 186 183 184 187 186 186 190 192 193 195 195 196 195 196 206 215 211 222 224 226 229 223 227 230 238 247 244 239 231 225 219 209 197 189 224
292 31 73 101 173 227 231 259 274 284 292 311 288 280 285 263 232 259 240 263 279 277 266 241 230 249 223 258 275 290 301 306 308 306 299 287 281 275 269 259 243 234 229 228 225 220 217 215 214 214 212 211 206 199 200 201 202 200 199 204 203 202 198 194 193 192 189 188 192 192 195 197 196 197 198 198 201 208 211 221 225 231 241 238 241 237 235 242 244 242 234 231 223 207 213 227 259
159 140 87 148 202 197 183 265 278 303 300 258 252 270 280 259 241 266 262 266 277 280 287 267 243 253 248 264 284 293 301 306 316 326 317 300 283 268 262 253 240 232 228 226 225 224 223 221 219 220 218 216 211 205 206 205 207 205 204 207 208 211 212 211 208 205 201 195 197 195 198 202 202 203 204 203 202 204 216 235 234 239 245 237 244 244 237 242 243 241 236 235 231 228 243 262 278
141 156 118 201 204 106 182 276 291 303 284 254 263 271 268 272 267 282 285 275 285 275 293 298 255 244 268 268 289 298 309 312 317 323 321 313 292 273 260 250 239 231 228 227 226 226 226 225 225 224 222 221 219 213 212 210 211 211 211 212 212 215 219 224 225 222 218 210 207 203 203 206 207 209 209 209 208 208 217 239 240 243 243 228 230 239 246 251 248 248 250 251 251 253 263 276 281
168 154 104 139 341 343 215 237 274 259 262 261 269 272 282 287 291 292 290 273 294 295 293 298 257 232 274 254 289 300 302 301 305 308 309 309 296 280 263 249 240 231 227 230 228 229 227 227 228 227 226 225 226 223 221 218 216 218 217 219 219 220 222 228 236 237 233 227 219 213 213 213 212 214 214 215 216 217 222 232 237 243 246 236 226 230 251 258 255 258 261 263 264 268 276 282 281
161 145 76 42 232 282 223 209 262 270 253 250 257 278 301 297 303 297 298 287 286 296 293 280 256 254 266 269 286 292 295 297 298 299 298 296 288 279 268 253 242 233 228 230 230 232 230 229 229 229 229 229 230 229 227 225 223 224 224 226 227 226 227 228 236 242 242 238 232 226 223 221 219 219 220 221 222 226 230 230 235 242 246 246 234 232 253 260 260 262 263 265 268 273 280 281 279
156 122 69 265 212 219 213 198 200 213 261 275 283 291 303 302 308 304 306 291 278 292 290 280 273 271 273 280 290 292 295 298 298 297 294 288 281 273 267 258 247 239 233 231 231 232 232 233 232 231 232 232 233 232 231 230 228 230 230 231 232 232 231 230 233 239 244 244 241 237 234 231 228 226 226 226 227 231 236 230 232 241 245 250 243 242 255 258 260 261 262 266 269 273 276 274 272
154 104 151 236 205 206 191 189 203 187 270 279 293 307 289 300 315 320 314 292 286 298 295 292 288 286 287 290 294 297 298 299 299 298 294 288 279 270 266 261 256 251 244 238 234 233 234 236 236 235 235 235 235 234 233 234 232 233 234 234 235 235 235 234 232 236 242 246 246 245 243 241 238 234 232 233 233 235 240 232 231 241 245 250 250 251 253 253 259 261 263 267 270 275 274 271 271
134 115 173 229 204 212 201 197 206 217 278 285 295 312 301 291 313 323 315 299 307 307 299 302 302 309 315 311 307 307 306 303 302 299 295 291 283 277 271 265 261 257 253 248 244 240 238 238 239 240 239 237 237 237 235 235 235 235 236 236 237 237 238 237 236 237 240 244 248 249 247 246 245 239 236 238 238 239 242 237 234 242 247 250 252 253 251 252 259 261 263 268 275 281 275 273 274
147 131 212 244 216 236 240 237 248 261 283 296 306 322 312 301 312 312 300 306 310 295 293 300 304 316 323 322 319 315 313 312 309 303 298 294 288 283 276 271 266 264 263 259 256 250 245 244 243 243 242 240 238 238 237 236 236 236 238 238 238 240 240 239 239 239 240 243 247 250 250 248 247 243 239 240 241 241 244 243 239 241 246 249 251 253 254 257 259 260 263 270 281 281 275 275 277
160 153 205 227 176 263 272 263 280 292 300 298 310 328 313 313 321 302 306 319 306 294 303 306 306 315 322 324 324 321 320 318 315 310 304 301 295 290 284 280 275 274 270 264 260 256 253 250 247 246 244 242 241 241 240 240 238 238 240 241 240 241 241 241 242 242 241 243 246 249 250 249 248 245 241 242 243 244 244 245 243 242 245 248 251 255 258 260 260 262 264 271 277 275 274 275 275
171 210 235 219 149 259 302 329 327 321 320 311 319 326 309 315 320 298 289 249 278 310 320 320 318 321 324 324 324 323 322 320 317 314 310 306 301 297 294 290 283 278 272 269 268 264 259 255 253 250 247 246 246 246 245 243 241 241 243 243 242 243 243 244 244 244 244 245 246 248 249 248 249 247 245 244 246 246 246 247 246 245 246 248 251 256 259 260 260 262 264 268 270 270 272 272 273
210 270 282 265 213 256 314 331 324 320 317 314 319 310 305 311 313 299 270 260 300 326 332 329 330 333 331 330 335 337 340 339 335 329 322 314 308 304 301 296 290 284 278 276 275 269 263 260 257 254 251 250 250 249 247 245 244 245 245 245 245 246 246 247 247 248 248 248 248 248 249 250 251 251 249 248 249 249 248 249 249 247 247 248 251 255 257 259 260 261 263 265 267 268 270 271 272
162 276 312 327 299 284 314 321 320 323 319 319 322 306 301 302 305 295 287 316 339 341 342 344 350 359 4 7 12 14 14 10 6 1 350 336 324 316 309 301 294 286 281 279 277 272 269 266 261 258 256 255 253 251 250 249 249 247 246 245 247 248 248 249 251 251 251 250 250 250 250 251 251 252 251 250 250 250 250 250 250 249 248 249 251 253 255 257 259 260 262 264 265 267 267 269 271
146 246 307 336 325 312 327 334 334 336 337 343 335 299 295 296 284 274 320 353 352 350 358 7 18 28 32 34 34 33 30 27 26 23 18 9 354 339 326 315 306 293 286 286 283 279 276 271 266 263 261 258 256 254 252 253 252 250 248 247 249 249 250 252 254 253 252 252 252 251 251 252 252 252 253 252 252 251 251 250 250 250 250 250 250 252 253 255 257 259 261 262 264 264 265 267 269
200 267 302 307 314 316 339 346 345 340 347 4 341 301 312 312 294 282 360 358 354 5 21 26 33 39 40 40 38 35 33 30 29 28 27 24 17 8 354 335 320 306 299 296 290 287 283 277 272 269 266 262 260 256 255 255 254 254 252 251 251 250 252 254 253 253 254 254 254 254 253 254 254 254 254 253 253 253 252 251 250 251 250 251 250 251 252 254 256 257 259 260 261 262 262 264 265
290 297 297 303 315 318 349 345 342 344 354 8 349 317 335 351 49 1 357 358 4 21 31 34 38 40 38 39 37 35 34 31 30 29 29 27 25 22 14 359 340 321 314 308 301 298 291 284 280 276 272 267 263 260 259 258 257 257 256 254 253 252 254 253 254 254 255 255 256 256 255 255 255 254 254 253 254 253 253 252 251 251 251 251 251 252 252 252 254 256 257 258 259 260 259 260 261
301 322 306 325 353 22 2 346 344 353 6 357 351 328 356 29 63 4 356 4 20 30 33 35 36 37 35 37 36 35 34 32 32 32 31 28 27 28 26 20 8 353 339 326 319 312 302 295 290 284 280 273 268 265 263 262 260 260 259 257 255 255 254 254 255 255 256 258 258 257 257 257 256 255 255 254 254 254 254 254 252 252 251 252 252 252 251 251 252 253 255 255 256 256 256 258 259
293 7 320 328 11 111 5 355 348 1 12 353 355 83 358 31 32 6 5 14 31 35 33 31 30 32 32 33 34 34 33 32 33 33 32 31 30 31 31 29 24 17 8 351 337 326 315 308 301 294 289 281 276 272 269 267 265 263 261 259 259 257 255 255 256 257 258 259 259 259 259 258 258 258 257 256 255 255 255 255 254 253 252 252 251 251 250 249 249 250 252 253 253 255 256 257 259
259 41 62 342 8 50 357 1 351 11 16 353 3 97 341 46 33 15 17 24 34 37 31 28 28 29 29 30 31 31 31 31 32 31 31 31 31 31 31 30 29 27 23 14 2 349 332 319 310 303 299 292 288 282 277 274 271 268 265 263 261 260 259 258 258 258 259 260 260 261 260 260 260 260 259 258 256 255 255 255 254 254 252 251 251 250 249 248 248 249 251 252 253 254 255 256 256
349 15 48 33 15 311 341 4 8 25 7 356 17 134 319 43 30 21 24 29 41 39 29 29 28 26 26 27 28 29 29 29 29 30 30 30 30 29 29 29 29 29 28 25 22 14 359 341 326 316 311 304 297 292 287 283 279 276 272 269 266 264 263 262 262 261 260 260 261 261 261 261 261 260 260 259 257 256 255 255 255 255 253 252 251 250 249 248 248 249 251 251 253 254 254 254 255
24 16 354 358 17 315 324 4 54 41 344 4 34 148 292 45 27 21 26 33 45 43 31 30 28 26 25 24 25 25 25 26 27 28 28 29 28 27 26 26 27 28 28 28 28 26 22 14 359 341 326 311 302 295 290 287 284 282 279 275 272 269 268 266 265 264 263 262 261 262 262 262 261 260 260 259 258 257 256 256 256 256 254 253 252 251 250 249 249 250 251 252 253 254 255 255 256
12 36 341 317 350 337 326 353 62 37 2 11 33 275 285 39 24 19 27 35 46 45 34 31 29 27 26 24 24 22 21 22 23 24 24 25 26 25 25 24 24 25 25 26 26 26 27 27 23 15 358 328 310 300 293 288 284 283 282 280 277 274 272 270 269 267 266 264 263 263 263 262 262 261 261 260 259 258 257 257 257 256 255 254 254 253 252 251 251 251 252 253 253 254 255 255 256
340 23 10 299 315 324 324 319 17 28 29 3 9 99 21 23 15 16 26 35 46 47 36 34 32 28 27 25 24 22 21 19 18 17 18 20 22 22 23 22 21 21 22 22 22 23 24 25 26 24 20 7 347 324 308 299 291 286 283 280 279 276 274 272 271 270 269 268 267 267 267 266 266 265 264 263 262 261 259 258 257 257 256 255 254 254 253 252 251 251 252 254 254 254 254 255 257
287 318 322 306 313 292 294 296 344 26 26 2 2 57 50 19 9 16 23 33 45 47 40 38 35 30 28 26 24 22 20 18 15 13 14 16 17 17 18 18 18 17 18 18 18 19 18 19 20 20 21 19 13 3 346 326 311 303 294 287 284 281 280 278 276 274 273 273 272 272 272 272 271 270 268 267 265 263 262 260 258 257 256 255 254 254 253 252 252 252 252 253 254 255 255 255 256
250 267 255 274 295 282 280 280 306 22 25 20 22 48 62 27 8 16 20 32 43 41 38 39 34 31 29 26 24 21 19 16 13 11 12 13 13 13 12 13 13 13 13 13 14 14 14 13 12 13 14 14 15 14 8 359 345 329 314 303 296 292 290 287 284 283 282 281 279 278 277 276 276 275 274 272 270 268 265 263 260 259 257 256 255 255 255 255 255 255 254 255 255 255 254 254 254
244 244 246 267 267 278 284 276 287 21 36 1 48 75 84 48 18 16 22 32 38 32 31 34 32 30 28 25 23 19 17 14 12 12 11 10 10 9 8 7 7 7 8 7 8 9 10 9 8 8 8 7 8 11 12 9 3 352 336 321 308 300 297 293 292 292 291 290 287 283 280 278 279 279 278 276 274 272 268 265 262 260 258 256 256 257 259 259 257 256 255 254 254 255 254 254 253
118 189 243 281 264 269 285 281 289 26 38 295 112 91 93 75 49 20 27 37 36 27 27 30 28 27 25 23 20 16 14 12 11 12 11 10 8 6 4 3 3 3 3 3 3 3 3 4 4 4 3 2 2 3 5 8 7 2 353 342 326 310 302 297 294 292 291 290 289 287 285 285 285 286 284 281 277 272 268 265 262 260 257 256 256 257 258 257 256 254 253 252 252 253 253 253 251
125 147 237 303 291 286 291 276 223 6 16 280 173 103 163 138 91 35 35 47 42 32 34 34 29 26 22 19 16 12 10 9 9 9 9 8 7 5 2 0 359 359 358 359 359 358 357 357 358 358 358 358 357 355 355 357 359 360 358 355 346 336 327 315 304 297 292 288 288 290 293 294 293 291 288 284 279 274 271 268 265 262 259 256 255 255 256 256 255 253 252 251 251 251 250 250 249
121 256 7 308 316 341 303 285 329 322 302 246 260 109 198 199 93 56 43 49 45 35 37 37 32 28 22 17 14 11 9 7 5 5 5 5 4 4 2 358 356 354 354 355 355 355 355 353 352 351 352 352 351 349 348 346 345 346 348 351 350 348 345 339 327 317 305 295 292 293 294 292 289 288 287 284 281 278 275 272 269 266 263 259 256 255 255 256 256 255 254 253 251 249 248 249 249
319 224 205 297 304 281 255 285 318 326 340 196 48 39 231 211 165 27 29 38 38 29 31 33 28 24 20 16 13 11 9 6 3 2 1 1 0 360 359 357 353 351 351 352 352 352 352 351 349 347 346 346 346 345 344 341 338 336 335 337 340 341 343 342 337 332 326 317 308 301 293 286 282 282 282 282 280 278 276 273 271 269 266 263 259 257 257 257 258 258 257 256 254 252 251 251 250
325 252 213 269 291 279 271 297 325 345 357 293 37 357 289 173 138 274 352 24 26 23 28 27 21 18 16 13 9 7 6 4 2 0 359 358 357 356 355 354 352 349 348 349 349 349 349 348 347 345 344 343 342 341 341 340 337 335 333 333 335 336 338 341 341 338 335 330 323 314 303 293 285 280 278 279 279 278 276 273 271 269 266 264 261 260 259 258 257 257 258 258 257 256 254 251 249
339 273 199 246 285 290 291 307 337 335 293 284 57 198 260 254 226 242 255 34 25 22 25 22 16 13 11 8 6 3 3 2 360 358 357 355 353 351 350 350 350 347 345 346 346 345 346 346 345 344 342 341 341 338 337 336 335 335 334 333 333 331 330 331 334 335 334 333 329 324 315 304 295 287 282 279 277 277 276 273 270 267 265 262 261 260 258 258 258 258 258 258 258 257 253 250 249
315 248 169 291 296 291 292 298 222 247 286 317 11 142 244 278 244 230 228 47 28 20 16 10 9 8 6 4 3 2 1 0 358 355 354 352 349 347 345 345 346 346 344 342 341 341 342 344 344 342 340 339 339 338 336 334 333 332 331 329 327 326 325 323 322 322 324 326 326 326 323 314 303 294 289 285 280 276 274 272 269 266 263 261 258 257 257 258 258 257 257 256 256 254 252 251 250
273 253 286 294 292 283 261 212 221 261 1 328 314 100 279 279 249 200 212 60 23 9 360 346 349 358 1 360 360 0 359 359 357 354 351 348 345 343 342 341 341 342 341 338 336 335 337 339 341 341 340 337 336 336 336 334 332 329 327 326 323 320 319 318 316 315 315 315 315 319 321 320 314 304 295 290 285 281 277 274 270 266 263 261 259 257 257 257 257 256 255 254 253 253 251 250 250
285 294 301 279 253 74 124 170 227 344 25 281 282 354 308 287 284 9 40 71 14 347 336 325 329 344 356 358 357 358 358 356 356 352 349 346 343 340 339 338 338 338 338 336 332 330 331 334 337 338 338 337 335 334 333 333 332 329 326 325 324 321 318 314 312 311 311 311 310 311 312 314 316 314 306 295 287 283 281 278 273 268 265 264 262 260 258 257 256 255 254 253 254 253 252 249 248
306 335 324 307 59 78 60 51 90 31 333 263 254 259 284 290 286 218 298 155 181 305 319 327 331 339 350 356 357 358 357 355 353 350 347 345 341 339 337 336 336 336 336 335 331 328 327 329 333 335 335 335 334 332 331 331 331 330 327 326 324 324 323 319 315 311 310 308 307 308 308 307 308 311 311 306 297 289 283 278 275 272 268 265 262 260 258 257 256 256 254 254 253 253 252 250 248
338 8 349 344 357 25 19 354 32 26 318 290 275 257 248 267 273 173 170 190 189 275 322 329 330 332 343 352 354 355 354 352 350 347 345 343 340 339 337 334 334 334 335 335 332 327 324 324 329 331 332 332 332 330 329 329 328 328 327 325 323 323 324 324 321 318 315 311 307 304 304 304 304 304 305 306 305 299 289 280 275 271 268 264 260 260 260 259 259 257 255 253 253 252 251 249 246
10 14 15 13 359 354 351 336 356 332 288 297 351 12 266 258 264 185 167 160 201 301 319 318 323 326 336 347 350 350 350 347 346 344 342 341 339 337 334 331 331 332 333 335 332 327 322 321 325 328 328 329 329 327 326 326 326 326 325 324 323 322 321 321 321 319 319 317 312 307 303 301 301 301 301 301 302 301 293 285 278 271 267 264 260 259 260 260 260 257 255 253 253 252 251 248 245
7 4 42 40 20 348 327 314 329 302 285 301 339 354 297 287 281 188 173 153 148 346 335 326 326 327 333 342 345 345 344 343 343 342 341 340 338 334 331 329 328 330 333 334 331 327 321 319 322 324 325 325 325 325 324 324 324 324 325 323 322 321 319 318 318 317 317 317 316 312 307 303 299 298 298 297 298 297 293 288 283 276 269 263 260 257 256 257 258 257 256 255 254 253 252 250 247
338 195 104 66 57 332 284 271 297 303 297 305 326 331 284 302 321 183 168 140 22 335 332 327 326 330 336 338 339 341 341 342 343 342 340 337 335 332 329 328 328 329 332 331 328 325 320 318 319 321 322 322 322 321 322 322 322 322 323 322 321 320 318 317 316 316 316 315 313 311 309 306 301 297 294 294 293 292 290 288 285 281 274 265 258 256 254 253 254 255 255 255 254 254 253 251 248
275 134 83 29 321 177 226 252 256 282 290 293 306 269 244 287 297 220 131 3 326 312 316 323 326 334 339 338 340 342 340 340 340 338 336 334 332 329 327 327 328 330 331 328 325 323 319 317 317 318 319 319 320 320 320 320 320 320 321 321 320 319 317 316 315 314 314 313 311 308 306 305 303 298 293 290 289 288 288 286 284 282 278 269 259 254 252 251 250 252 253 253 253 253 253 251 248
292 47 6 296 221 154 219 290 289 307 288 281 294 289 292 319 291 316 1 328 311 308 316 330 336 341 343 342 342 340 336 335 335 333 332 330 328 326 326 327 329 331 330 326 324 322 319 317 317 317 317 318 319 319 320 319 318 318 318 319 320 318 317 315 313 313 313 312 309 307 304 302 302 300 295 290 286 285 285 284 283 281 279 274 263 255 252 250 249 250 251 251 252 252 252 252 248
32 31 325 297 260 115 121 291 321 332 282 274 308 299 304 323 316 1 360 318 326 334 336 340 342 343 342 338 336 332 330 331 330 331 330 328 326 325 324 326 329 331 329 325 323 322 320 318 317 317 316 316 317 318 318 317 317 316 316 318 319 318 316 314 313 313 312 311 310 308 305 301 300 301 299 294 288 285 283 282 282 280 279 277 269 259 253 251 249 248 249 249 250 250 252 252 249
81 86 339 4 336 323 22 351 313 310 286 287 302 296 300 313 298 351 357 339 340 339 340 343 340 339 335 330 328 327 327 328 328 328 327 325 325 324 324 326 329 331 328 325 324 322 321 320 319 318 316 315 316 316 316 316 315 315 315 316 317 317 316 314 313 313 311 310 309 309 307 303 300 299 298 297 292 286 284 282 281 280 278 277 273 265 256 252 249 248 248 248 248 249 249 249 248
58 72 32 29 251 260 327 332 289 293 291 296 302 298 305 311 235 347 356 347 343 341 347 344 332 329 328 325 324 324 326 327 326 325 323 323 324 323 323 326 328 330 328 325 325 324 322 321 320 319 317 316 316 316 316 316 316 316 315 316 317 317 316 314 312 312 311 309 309 309 306 303 301 298 297 298 294 289 285 283 282 280 277 275 273 269 260 254 251 248 248 247 247 247 248 248 246
19 41 17 348 348 226 284 266 181 287 291 297 303 295 299 349 116 5 358 346 345 347 346 331 325 325 326 324 323 324 324 325 323 322 322 322 323 322 322 325 328 329 327 325 325 324 323 322 321 320 319 317 317 317 317 317 317 316 316 316 317 317 316 314 313 312 311 309 309 308 305 302 300 298 297 297 294 290 287 283 282 280 278 273 270 270 265 257 252 249 248 247 246 245 246 246 245
78 71 108 299 69 3 316 288 240 238 269 281 291 286 294 344 87 8 2 347 343 345 335 325 324 325 325 324 323 322 322 322 322 322 322 322 322 321 321 324 329 329 327 325 324 324 323 323 322 321 320 318 317 317 318 317 317 316 315 315 316 316 315 314 312 311 311 310 309 307 304 301 299 296 297 297 295 294 289 284 281 279 278 275 269 267 266 260 254 249 248 248 246 244 243 243 243